This demonstration page uses our WeatherBlox Daily Observations layout. Learn more.

Left ArrowRight Arrow

Hourly Observations for August 27, 2020

Temp ( °F °C ) Dew Point ( °F °C ) Humidity (%) Winds ( mph kmh ) Pressure ( in mb ) Visibility ( mi km ) Precip ( " mm )
12:51 am 00:51 Clear 84 28.9 51 10.6 32 32 NNE 3 6 29.63 1003 10 16.0934 0 0
1:51 am 01:51 Clear 82 27.8 49 9.4 32 32 Calm 29.62 1003 10 16.0934 0 0
2:51 am 02:51 Clear 82 27.8 48 8.9 31 31 NNE 3 6 29.61 1003 10 16.0934 0 0
3:51 am 03:51 Clear 80 26.7 47 8.3 31 31 Calm 29.62 1003 10 16.0934 0 0
4:51 am 04:51 Clear 80 26.7 48 8.9 33 33 ESE 5 7 29.63 1004 10 16.0934 0 0
5:51 am 05:51 Sunny 80 26.7 50 10 35 35 Calm 29.66 1004 10 16.0934 0 0
6:51 am 06:51 Sunny 82 27.8 46 7.8 28 28 E 3 6 29.68 1005 10 16.0934 0 0
7:51 am 07:51 Sunny 84 28.9 47 8.3 27 27 S 6 9 29.69 1006 10 16.0934 0 0
8:51 am 08:51 Sunny 91 32.8 50 10 25 25 SE 8 13 29.68 1005 10 16.0934 0 0
9:51 am 09:51 Sunny 95 35 49 9.4 21 21 SSE 8 13 29.68 1005 10 16.0934 0 0
10:51 am 10:51 Sunny 98 36.7 46 7.8 17 17 SE 7 11 29.67 1005 10 16.0934 0 0
11:51 am 11:51 Sunny 101 38.3 46 7.8 15 15 S 10 17 29.65 1004 10 16.0934 0 0
12:51 pm 12:51 Sunny 102 38.9 45 7.2 14 14 E 3 6 29.62 1003 10 16.0934 0 0
1:51 pm 13:51 Sunny 104 40 46 7.8 14 14 SE 8 13 29.59 1002 10 16.0934 0 0
2:51 pm 14:51 Sunny 106 41.1 44 6.7 12 12 VRB 3 6 29.55 1001 10 16.0934 0 0
3:51 pm 15:51 Mostly Sunny 106 41.1 44 6.7 12 12 WSW 5 7 29.54 1000 10 16.0934 0 0
4:51 pm 16:51 Sunny 106 41.1 48 8.9 14 14 WNW 21 33 29.52 1000 10 16.0934 0 0
5:01 pm 17:01 Mostly Sunny 105 40.6 48 8.9 15 15 WNW 17 28 29.39 995 10 16.0934 0 0
5:51 pm 17:51 Sunny 103 39.4 48 8.9 16 16 NW 14 22 29.54 1000 10 16.0934 0 0
6:51 pm 18:51 Clear 99 37.2 49 9.4 18 18 NNW 12 19 29.57 1001 10 16.0934 0 0
7:51 pm 19:51 Clear 97 36.1 49 9.4 20 20 NW 9 15 29.59 1002 10 16.0934 0 0
8:51 pm 20:51 Clear 91 32.8 51 10.6 26 26 WNW 13 20 29.61 1003 10 16.0934 0 0
9:51 pm 21:51 Clear 88 31.1 54 12.2 31 31 W 17 28 29.62 1003 10 16.0934 0 0
10:51 pm 22:51 Clear 85 29.4 55 12.8 36 36 N 5 7 29.65 1004 10 16.0934 0 0
11:51 pm 23:51 Clear 86 30 53 11.7 32 32 WNW 12 19 29.64 1004 10 16.0934 0 0

Powered by AerisWeather